1484344801.13,60547,5.81,71208.3,-10.77,-12.47,-12.43,0,*65
1484344802.37,60548,5.75,71206.8,-10.75,-12.39,-12.39,0,*6C
1484344803.58,60549,5.75,71208.8,-10.77,-12.43,-12.43,0,*6F
1484344804.79,60550,5.81,71208.8,-10.77,-12.43,-12.43,0,*67
1484344806.0,60551,5.75,71208.0,-10.77,-12.43,-12.43,0,*66
1484344807.2,60552,5.81,71210.0,-10.77,-12.43,-12.43,0,*65
1484344808.41,60553,5.81,71210.5,-10.77,-12.43,-12.43,0,*64
1484344809.68,60554,5.75,71210.8,-10.79,-12.43,-12.35,0,*6C
1484344810.89,60555,5.75,71208.3,-10.77,-12.43,-12.43,0,*62
1484344812.1,60556,5.81,71214.0,-10.77,-12.43,-12.43,0,*61
1484344813.31,60557,5.75,71212.0,-10.77,-12.43,-12.43,0,*60
1484344814.52,60558,5.81,71210.3,-10.77,-12.47,-12.43,0,*6B
1484344815.73,60559,5.81,71210.8,-10.77,-12.47,-12.47,0,*6E
1484344816.94,60560,5.75,71210.3,-10.77,-12.47,-12.47,0,*64
1484344818.18,60561,5.81,71212.8,-10.75,-12.43,-12.43,0,*67
1484344819.42,60562,5.81,71212.0,-10.75,-12.43,-12.43,0,*64
1484344820.63,60563,5.81,71212.8,-10.77,-12.47,-12.43,0,*63
1484344821.84,60564,5.75,71208.5,-10.77,-12.47,-12.43,0,*64
1484344823.09,60565,5.81,71214.8,-10.77,-12.47,-12.35,0,*64
1484344824.29,60566,5.81,71212.5,-10.77,-12.43,-12.43,0,*62
1484344825.54,60567,5.81,71212.0,-10.75,-12.39,-12.29,0,*60
1484344826.78,60568,5.81,71214.5,-10.75,-12.43,-12.39,0,*63
1484344828.02,60569,5.81,71208.8,-10.75,-12.39,-12.39,0,*6F
1484344829.23,60570,5.75,71204.8,-10.77,-12.43,-12.43,0,*65
1484344830.43,60571,5.81,71212.8,-10.77,-12.43,-12.43,0,*64
1484344831.64,60572,5.75,71210.5,-10.77,-12.43,-12.43,0,*67
1484344832.88,60573,5.75,71208.3,-10.75,-12.39,-12.39,0,*64
1484344834.09,60574,5.75,71206.5,-10.77,-12.43,-12.43,0,*61
1484344835.3,60575,5.75,71210.3,-10.77,-12.47,-12.43,0,*64
1484344836.52,60576,5.81,71208.3,-10.77,-12.47,-12.43,0,*67
1484344837.73,60577,5.75,71204.8,-10.77,-12.47,-12.43,0,*66
1484344838.94,60578,5.81,71212.0,-10.77,-12.47,-12.43,0,*69
1484344840.18,60579,5.75,71210.8,-10.75,-12.43,-12.43,0,*6E
1484344841.39,60580,5.81,71208.8,-10.77,-12.47,-12.43,0,*6E
1484344842.6,60581,5.81,71210.5,-10.77,-12.47,-12.43,0,*6F
1484344843.81,60582,5.81,71210.0,-10.77,-12.47,-12.43,0,*6C
1484344845.03,60583,5.81,71210.3,-10.77,-12.47,-12.43,0,*6D
1484344846.24,60584,5.75,71208.8,-10.77,-12.47,-12.43,0,*6A
1484344847.45,60585,5.81,71214.3,-10.77,-12.47,-12.43,0,*6B
1484344848.69,60586,5.81,71214.0,-10.77,-12.47,-12.35,0,*69
1484344849.93,60587,5.75,71212.0,-10.77,-12.43,-12.35,0,*6C
1484344851.16,60588,5.81,71214.8,-10.77,-12.43,-12.35,0,*63
1484344852.4,60589,5.81,71212.3,-10.77,-12.35,-12.43,0,*62
1484344853.64,60590,5.81,71214.0,-10.77,-12.43,-12.35,0,*6A
1484344854.85,60591,5.81,71214.0,-10.77,-12.43,-12.43,0,*6A
1484344856.09,60592,5.81,71212.8,-10.77,-12.43,-12.35,0,*68
1484344857.32,60593,5.81,71214.0,-10.77,-12.43,-12.35,0,*69
1484344858.56,60594,5.81,71212.8,-10.77,-12.43,-12.35,0,*6E
1484344859.8,60595,5.81,71210.5,-10.75,-12.39,-12.39,0,*6C
1484344861.05,60596,5.81,71212.3,-10.75,-12.29,-12.29,0,*6F
1484344862.26,60597,5.75,71208.0,-10.77,-12.43,-12.29,0,*60
1484344863.5,60598,5.81,71214.8,-10.77,-12.35,-12.29,0,*6E
1484344864.74,60599,5.81,71214.3,-10.77,-12.35,-12.29,0,*6F
1484344865.95,60600,5.81,71214.5,-10.77,-12.43,-12.43,0,*61
1484344867.16,60601,5.75,71212.0,-10.77,-12.43,-12.43,0,*60
1484344868.37,60602,5.81,71212.3,-10.77,-12.43,-12.43,0,*63
1484344869.61,60603,5.75,71208.3,-10.75,-12.39,-12.29,0,*61
1484344870.87,60604,5.75,71210.0,-10.77,-12.35,-12.35,0,*65
1484344872.08,60605,5.81,71214.8,-10.77,-12.39,-12.39,0,*64
1484344873.35,60606,5.75,71210.8,-10.75,-12.39,-12.35,0,*69
1484344874.59,60607,5.75,71210.3,-10.77,-12.43,-12.35,0,*67
1484344875.83,60608,5.81,71212.3,-10.77,-12.43,-12.35,0,*68
1484344877.07,60609,5.81,71210.5,-10.77,-12.35,-12.29,0,*65
1484344878.31,60610,5.81,71208.5,-10.77,-12.35,-12.21,0,*65
1484344879.55,60611,5.75,71208.0,-10.77,-12.29,-12.35,0,*6C
1484344880.79,60612,5.75,71208.8,-10.77,-12.43,-12.35,0,*63
1484344882.0,60613,5.75,71208.8,-10.77,-12.43,-12.43,0,*63
1484344883.21,60614,5.81,71214.0,-10.77,-12.43,-12.43,0,*64
1484344884.47,60615,5.81,71214.0,-10.77,-12.35,-12.35,0,*65
1484344885.71,60616,5.81,71212.3,-10.77,-12.43,-12.35,0,*67
1484344886.92,60617,5.81,71210.0,-10.77,-12.43,-12.43,0,*67
1484344888.13,60618,5.81,71210.0,-10.77,-12.43,-12.43,0,*68
1484344889.34,60619,5.75,71208.5,-10.77,-12.43,-12.43,0,*69
1484344890.6,60620,5.81,71212.8,-10.77,-12.35,-12.35,0,*63
1484344891.81,60621,5.81,71214.5,-10.77,-12.43,-12.43,0,*62
1484344893.05,60622,5.75,71208.5,-10.77,-12.35,-12.29,0,*6C
1484344894.29,60623,5.75,71210.0,-10.77,-12.43,-12.35,0,*61
1484344895.56,60624,5.81,71208.8,-10.77,-12.35,-12.35,0,*67
1484344896.79,60625,5.81,71212.5,-10.77,-12.43,-12.35,0,*67
1484344898.06,60626,5.81,71214.0,-10.77,-12.35,-12.35,0,*65
1484344899.27,60627,5.75,71210.0,-10.77,-12.29,-12.39,0,*65
1484344900.52,60628,5.81,71212.5,-10.75,-12.29,-12.25,0,*65
1484344901.77,60629,5.81,71212.3,-10.75,-12.29,-12.29,0,*68
1484344903.01,60630,5.81,71210.8,-10.75,-12.39,-12.39,0,*60
1484344904.25,60631,5.81,71212.5,-10.75,-12.39,-12.39,0,*61
1484344905.46,60632,5.81,71212.5,-10.77,-12.43,-12.43,0,*60
1484344906.7,60633,5.81,71214.8,-10.75,-12.39,-12.29,0,*62
1484344907.94,60634,5.81,71212.3,-10.77,-12.43,-12.35,0,*67
1484344909.18,60635,5.81,71208.5,-10.77,-12.43,-12.35,0,*66
1484344910.39,60636,5.81,71210.5,-10.77,-12.43,-12.29,0,*68
1484344911.6,60637,5.81,71210.3,-10.77,-12.43,-12.29,0,*69
1484344912.83,60638,5.81,71212.5,-10.77,-12.43,-12.35,0,*6B
1484344914.1,60639,5.81,71208.5,-10.77,-12.35,-12.35,0,*6B
1484344915.37,60640,5.75,71210.0,-10.77,-12.35,-12.35,0,*65
1484344916.63,60641,5.81,71210.3,-10.77,-12.35,-12.35,0,*64
1484344917.9,60642,5.75,71206.3,-10.77,-12.35,-12.35,0,*67
1484344919.14,60643,5.75,71208.8,-10.77,-12.43,-12.35,0,*67
1484344920.39,60644,5.81,71214.8,-10.75,-12.29,-12.29,0,*63
1484344921.6,60645,5.81,71210.5,-10.77,-12.29,-12.29,0,*60
1484344922.87,60646,5.75,71210.8,-10.77,-12.35,-12.35,0,*63
1484344924.14,60647,5.81,71212.0,-10.75,-12.29,-12.15,0,*6F
1484344925.38,60648,5.81,71212.3,-10.77,-12.35,-12.29,0,*60
1484344926.62,60649,5.81,71212.5,-10.77,-12.35,-12.29,0,*61
1484344927.84,60650,5.81,71212.5,-10.77,-12.29,-12.29,0,*64
1484344929.05,60651,5.81,71210.8,-10.77,-12.29,-12.25,0,*69
1484344930.29,60652,5.81,71208.8,-10.77,-12.35,-12.29,0,*6B
1484344931.53,60653,5.81,71212.8,-10.75,-12.25,-12.25,0,*65
1484344932.77,60654,5.81,71212.3,-10.77,-12.35,-12.29,0,*6D
1484344933.99,60655,5.81,71210.8,-10.77,-12.29,-12.29,0,*61
1484344935.23,60656,5.81,71212.8,-10.77,-12.29,-12.35,0,*6F
1484344936.48,60657,5.81,71210.8,-10.75,-12.29,-12.29,0,*61
1484344937.73,60658,5.81,71210.8,-10.77,-12.29,-12.35,0,*61
1484344938.95,60659,5.81,71212.0,-10.77,-12.21,-12.21,0,*6D
1484344940.17,60660,5.81,71208.8,-10.77,-12.21,-12.21,0,*67
1484344941.39,60661,5.81,71212.5,-10.77,-12.21,-12.21,0,*66
1484344942.6,60662,5.81,71212.8,-10.77,-12.29,-12.43,0,*69
1484344943.85,60663,5.81,71212.0,-10.75,-12.29,-12.25,0,*6A
1484344945.07,60664,5.81,71208.5,-10.77,-12.29,-12.21,0,*6B
1484344946.28,60665,5.81,71210.3,-10.77,-12.29,-12.29,0,*62
1484344947.53,60666,5.81,71208.5,-10.75,-12.25,-12.25,0,*63
1484344948.8,60667,5.81,71208.5,-10.77,-12.35,-12.35,0,*60
1484344950.01,60668,5.75,71208.3,-10.77,-12.39,-12.29,0,*6E
1484344951.22,60669,5.81,71208.5,-10.77,-12.29,-12.29,0,*6E
1484344952.49,60670,5.81,71214.5,-10.77,-12.35,-12.35,0,*66
1484344953.76,60671,5.81,71210.5,-10.77,-12.35,-12.35,0,*67
1484344955.01,60672,5.81,71212.0,-10.75,-12.29,-12.29,0,*66
1484344956.27,60673,5.81,71212.3,-10.77,-12.35,-12.35,0,*65
1484344957.48,60674,5.81,71208.8,-10.77,-12.43,-12.29,0,*6E
1484344958.72,60675,5.81,71212.0,-10.77,-12.35,-12.29,0,*6E
1484344959.96,60676,5.75,71208.3,-10.77,-12.35,-12.29,0,*6D
1484344961.17,60677,5.75,71208.0,-10.77,-12.43,-12.29,0,*6D
1484344962.41,60678,5.81,71212.3,-10.77,-12.35,-12.29,0,*63
1484344963.63,60679,5.81,71212.5,-10.77,-12.29,-12.29,0,*6F
1484344964.87,60680,5.81,71210.5,-10.77,-12.29,-12.15,0,*66
1484344966.14,60681,5.81,71214.0,-10.75,-12.15,-12.21,0,*6D
1484344967.38,60682,5.81,71214.0,-10.77,-12.21,-12.15,0,*6C
1484344968.62,60683,5.81,71212.8,-10.77,-12.29,-12.15,0,*65
1484344969.83,60684,5.75,71210.5,-10.77,-12.29,-12.29,0,*6D
1484344971.05,60685,5.81,71214.8,-10.77,-12.29,-12.29,0,*6C
1484344972.29,60686,5.81,71212.5,-10.77,-12.35,-12.29,0,*62
1484344973.5,60687,5.75,71210.0,-10.77,-12.43,-12.29,0,*62
1484344974.79,60688,5.81,71214.0,-10.75,-12.15,-12.15,0,*63
1484344976.01,60689,5.81,71216.0,-10.77,-12.29,-12.21,0,*68
1484344977.23,60690,5.81,71214.0,-10.77,-12.21,-12.21,0,*68
1484344978.5,60691,5.81,71212.0,-10.75,-12.25,-12.15,0,*68
1484344979.72,60692,5.75,71214.5,-10.77,-12.29,-12.21,0,*62
1484344980.94,60693,5.81,71214.0,-10.77,-12.21,-12.21,0,*6B
1484344982.18,60694,5.75,71212.3,-10.75,-12.25,-12.25,0,*6E
1484344983.4,60695,5.81,71212.0,-10.77,-12.29,-12.29,0,*6D
1484344984.62,60696,5.81,71212.5,-10.77,-12.29,-12.29,0,*6E
1484344985.84,60697,5.81,71212.8,-10.77,-12.21,-12.21,0,*6F
1484344987.05,60698,5.75,71210.3,-10.77,-12.29,-12.29,0,*60
1484344988.27,60699,5.75,71210.3,-10.77,-12.29,-12.21,0,*69
1484344989.56,60700,5.81,71214.0,-10.75,-12.15,-12.15,0,*62
1484344990.78,60701,5.75,71208.8,-10.77,-12.21,-12.21,0,*61
1484344992.0,60702,5.81,71210.5,-10.77,-12.21,-12.21,0,*62
1484344993.22,60703,5.81,71212.3,-10.77,-12.29,-12.21,0,*6B
1484344994.47,60704,5.75,71212.5,-10.75,-12.25,-12.25,0,*66
1484344995.68,60705,5.75,71214.3,-10.77,-12.43,-12.29,0,*69
1484344996.9,60706,5.81,71216.8,-10.77,-12.21,-12.29,0,*6E
1484344998.12,60707,5.75,71214.5,-10.77,-12.21,-12.21,0,*67
1484344999.34,60708,5.75,71210.5,-10.77,-12.21,-12.21,0,*68
1484345000.58,60709,5.75,71208.0,-10.77,-12.21,-12.07,0,*6D
1484345001.84,60710,5.75,71208.8,-10.77,-12.15,-12.15,0,*61
1484345003.1,60711,5.75,71210.8,-10.77,-12.15,-12.15,0,*60
1484345004.36,60712,5.75,71210.5,-10.77,-12.07,-12.15,0,*60
1484345005.62,60713,5.81,71212.5,-10.77,-12.15,-12.15,0,*62
1484345006.89,60714,5.75,71206.5,-10.77,-12.07,-12.07,0,*65
1484345008.15,60715,5.81,71212.0,-10.77,-12.15,-12.15,0,*64
1484345009.41,60716,5.75,71208.0,-10.75,-12.03,-12.15,0,*62
1484345010.67,60717,5.81,71210.8,-10.77,-12.07,-12.15,0,*65
1484345011.92,60718,5.75,71210.8,-10.77,-12.21,-12.07,0,*6D
1484345013.18,60719,5.81,71214.3,-10.77,-12.15,-12.15,0,*68
1484345014.44,60720,5.81,71214.3,-10.77,-12.11,-12.15,0,*66
1484345015.7,60721,5.75,71210.3,-10.77,-12.15,-12.15,0,*63
1484345016.99,60722,5.81,71214.5,-10.75,-12.11,-12.11,0,*62
1484345018.23,60723,5.75,71210.5,-10.77,-12.21,-12.15,0,*66
1484345019.53,60724,5.81,71214.8,-10.75,-12.11,-12.11,0,*64
1484345020.82,60725,5.81,71214.0,-10.75,-12.15,-12.11,0,*61
1484345022.09,60726,5.81,71212.3,-10.75,-12.15,-12.03,0,*61
1484345023.38,60727,5.81,71214.3,-10.75,-12.11,-12.07,0,*60
1484345024.64,60728,5.81,71216.0,-10.77,-12.15,-12.15,0,*6A
1484345025.91,60729,5.75,71214.0,-10.77,-12.15,-12.07,0,*68
1484345027.2,60730,5.75,71212.3,-10.75,-12.11,-12.11,0,*61
1484345028.44,60731,5.81,71214.8,-10.77,-12.21,-12.07,0,*66
1484345029.74,60732,5.81,71212.8,-10.75,-12.15,-12.11,0,*67
1484345031.0,60733,5.75,71212.5,-10.77,-12.07,-12.15,0,*63
1484345032.22,60734,5.81,71212.8,-10.77,-12.21,-12.21,0,*67
1484345033.46,60735,5.75,71210.5,-10.77,-12.15,-12.03,0,*61
1484345034.72,60736,5.81,71214.5,-10.77,-12.15,-12.15,0,*65
1484345035.98,60737,5.81,71214.5,-10.77,-12.07,-12.07,0,*64
1484345037.25,60738,5.81,71212.5,-10.77,-12.07,-12.07,0,*6B
1484345038.51,60739,5.75,71212.0,-10.77,-12.15,-12.07,0,*69
1484345039.77,60740,5.75,71212.8,-10.77,-12.07,-12.07,0,*64
1484345041.04,60741,5.75,71214.5,-10.75,-12.11,-12.03,0,*64
1484345042.33,60742,5.81,71216.0,-10.75,-12.11,-11.97,0,*69
1484345043.63,60743,5.81,71214.8,-10.75,-12.15,-12.11,0,*61
1484345044.87,60744,5.81,71218.5,-10.75,-12.03,-12.03,0,*62
1484345046.13,60745,5.81,71214.8,-10.77,-12.15,-12.07,0,*62
1484345047.38,60746,5.81,71216.0,-10.77,-12.21,-12.07,0,*66
1484345048.62,60747,5.81,71214.0,-10.75,-12.03,-12.03,0,*61
1484345049.88,60748,5.81,71216.3,-10.77,-12.15,-12.07,0,*6F
1484345051.14,60749,5.81,71216.5,-10.77,-12.15,-12.15,0,*6D
1484345052.41,60750,5.75,71214.0,-10.75,-12.15,-12.03,0,*60
1484345053.68,60751,5.81,71218.3,-10.75,-12.15,-12.03,0,*61
1484345054.97,60752,5.81,71216.8,-10.75,-12.15,-12.11,0,*61
1484345056.24,60753,5.75,71216.0,-10.75,-12.15,-12.03,0,*63
1484345057.54,60754,5.81,71218.5,-10.75,-12.11,-12.07,0,*64
1484345058.81,60755,5.81,71218.0,-10.75,-12.11,-12.03,0,*61
1484345060.07,60756,5.75,71212.8,-10.77,-12.15,-12.15,0,*63
1484345061.31,60757,5.81,71216.8,-10.75,-12.03,-12.03,0,*60
1484345062.57,60758,5.81,71216.8,-10.77,-12.07,-11.93,0,*63
1484345063.84,60759,5.81,71218.5,-10.75,-12.11,-12.03,0,*6D
1484345065.11,60760,5.81,71214.8,-10.75,-12.03,-12.07,0,*60
1484345066.33,60761,5.81,71216.0,-10.73,-12.03,-12.03,0,*63
1484345067.59,60762,5.81,71216.8,-10.75,-12.03,-11.97,0,*68
1484345068.86,60763,5.81,71214.8,-10.75,-12.11,-12.03,0,*64
1484345070.12,60764,5.81,71212.8,-10.77,-12.15,-12.15,0,*62
1484345071.42,60765,5.75,71212.8,-10.75,-12.11,-12.11,0,*61
1484345072.68,60766,5.81,71218.5,-10.77,-12.15,-12.07,0,*63
1484345073.94,60767,5.81,71218.0,-10.77,-12.07,-12.07,0,*61
1484345075.21,60768,5.81,71218.0,-10.77,-12.07,-11.93,0,*60
1484345076.5,60769,5.75,71212.0,-10.75,-11.97,-11.97,0,*6D
1484345077.74,60770,5.81,71218.8,-10.77,-12.03,-11.93,0,*6D
1484345078.97,60771,5.75,71216.0,-10.77,-12.03,-12.15,0,*61
1484345080.24,60772,5.81,71214.8,-10.75,-12.11,-12.03,0,*64
1484345081.5,60773,5.81,71214.3,-10.77,-12.11,-12.15,0,*60
1484345082.74,60774,5.81,71212.5,-10.75,-12.03,-12.03,0,*61
1484345084.01,60775,5.81,71212.0,-10.77,-12.07,-12.07,0,*62
1484345085.27,60776,5.81,71216.5,-10.77,-12.15,-12.15,0,*61
1484345086.51,60777,5.81,71212.5,-10.75,-12.03,-12.03,0,*62
1484345087.77,60778,5.81,71216.3,-10.75,-12.03,-12.11,0,*6E
1484345089.03,60779,5.81,71214.5,-10.77,-12.07,-12.15,0,*6D
1484345090.27,60780,5.75,71212.5,-10.77,-12.03,-12.11,0,*6B
1484345091.51,60781,5.81,71216.3,-10.75,-12.03,-12.03,0,*6B
1484345092.77,60782,5.81,71216.8,-10.77,-12.07,-12.07,0,*6A
1484345094.06,60783,5.81,71214.0,-10.75,-11.97,-11.97,0,*69
1484345095.33,60784,5.81,71216.5,-10.77,-11.97,-12.07,0,*66
1484345096.59,60785,5.81,71214.3,-10.77,-12.07,-12.07,0,*6D
1484345097.86,60786,5.81,71218.0,-10.75,-12.03,-12.11,0,*6F
1484345099.12,60787,5.81,71216.8,-10.77,-12.11,-12.07,0,*68
1484345100.39,60788,5.81,71214.5,-10.75,-12.03,-12.11,0,*61
1484345101.65,60789,5.81,71214.8,-10.77,-12.07,-12.07,0,*61
1484345102.92,60790,5.81,71212.3,-10.75,-12.03,-12.11,0,*68
1484345104.19,60791,5.81,71214.3,-10.75,-12.11,-12.03,0,*69
1484345105.48,60792,5.75,71214.5,-10.75,-11.89,-12.07,0,*6C
1484345106.69,60793,5.75,71214.0,-10.77,-12.03,-12.03,0,*6A
1484345107.96,60794,5.81,71212.5,-10.77,-11.93,-12.07,0,*63
1484345109.22,60795,5.81,71216.0,-10.77,-12.07,-12.15,0,*6F
1484345110.48,60796,5.75,71210.8,-10.77,-12.07,-12.15,0,*6C
1484345111.74,60797,5.81,71212.3,-10.77,-12.15,-12.07,0,*6D
1484345112.98,60798,5.81,71216.5,-10.77,-12.03,-12.07,0,*65
1484345114.27,60799,5.81,71212.5,-10.75,-11.89,-11.97,0,*6D
1484345115.56,60800,5.81,71212.5,-10.75,-11.97,-11.97,0,*6D
1484345116.83,60801,5.81,71214.3,-10.75,-12.03,-11.97,0,*62
1484345118.07,60802,5.75,71214.0,-10.75,-12.03,-12.03,0,*6F
1484345119.34,60803,5.81,71218.8,-10.75,-12.11,-12.03,0,*6D
1484345120.6,60804,5.81,71216.3,-10.77,-12.07,-12.07,0,*6B
1484345121.87,60805,5.81,71214.5,-10.75,-11.97,-12.03,0,*66
1484345123.14,60806,5.81,71214.8,-10.75,-12.11,-12.03,0,*68
1484345124.4,60807,5.75,71212.5,-10.77,-12.15,-12.07,0,*6B
1484345125.67,60808,5.81,71218.5,-10.75,-12.03,-12.11,0,*66
1484345126.91,60809,5.81,71216.0,-10.75,-12.03,-12.03,0,*64
1484345128.15,60810,5.75,71214.0,-10.75,-12.03,-12.03,0,*6C
1484345129.42,60811,5.81,71218.8,-10.75,-12.03,-12.11,0,*6E
1484345130.65,60812,5.81,71212.8,-10.77,-12.03,-12.11,0,*6F
1484345131.92,60813,5.75,71214.8,-10.77,-12.07,-12.07,0,*6D
1484345133.19,60814,5.81,71212.0,-10.75,-11.89,-12.03,0,*69
1484345134.42,60815,5.81,71216.0,-10.77,-12.03,-11.97,0,*65
1484345135.68,60816,5.81,71216.0,-10.75,-12.03,-11.97,0,*64
1484345136.95,60817,5.81,71218.5,-10.75,-12.11,-12.03,0,*68
1484345138.24,60818,5.81,71214.0,-10.75,-11.97,-11.97,0,*64
1484345139.48,60819,5.81,71218.0,-10.77,-12.03,-12.15,0,*60
1484345140.74,60820,5.81,71214.0,-10.75,-12.03,-11.97,0,*61
1484345141.95,60821,5.81,71212.8,-10.77,-12.03,-12.03,0,*6C
1484345143.24,60822,5.81,71210.3,-10.75,-11.97,-11.97,0,*6D
1484345144.51,60823,5.81,71216.3,-10.75,-12.03,-11.97,0,*62
1484345145.77,60824,5.81,71218.0,-10.77,-12.07,-12.07,0,*69
1484345147.03,60825,5.81,71218.0,-10.77,-12.07,-12.15,0,*6B
1484345148.29,60826,5.81,71216.5,-10.75,-12.03,-11.97,0,*67
1484345149.56,60827,5.81,71214.5,-10.77,-12.15,-12.07,0,*69
1484345150.83,60828,5.75,71212.8,-10.75,-11.97,-12.03,0,*69
1484345152.06,60829,5.81,71212.3,-10.77,-12.03,-11.97,0,*6A
1484345153.3,60830,5.81,71212.3,-10.75,-12.03,-12.03,0,*6E
1484345154.54,60831,5.81,71214.8,-10.77,-12.07,-12.03,0,*69
1484345155.78,60832,5.81,71218.0,-10.75,-12.03,-12.03,0,*6C
1484345157.02,60833,5.81,71218.8,-10.77,-12.03,-11.93,0,*65
1484345158.25,60834,5.81,71212.8,-10.77,-12.03,-12.15,0,*6F
1484345159.51,60835,5.81,71214.8,-10.77,-11.89,-12.07,0,*6C
1484345160.78,60836,5.81,71214.5,-10.75,-11.89,-12.03,0,*69
1484345161.99,60837,5.81,71214.5,-10.77,-12.03,-12.03,0,*6B
1484345163.28,60838,5.81,71218.3,-10.75,-11.97,-11.97,0,*66
1484345164.57,60839,5.81,71214.0,-10.75,-11.97,-11.97,0,*67
1484345165.79,60840,5.81,71214.0,-10.77,-12.03,-12.03,0,*6B
1484345167.08,60841,5.81,71214.8,-10.75,-11.89,-11.97,0,*67
1484345168.37,60842,5.81,71214.5,-10.75,-11.89,-11.97,0,*64
1484345169.61,60843,5.81,71214.8,-10.77,-11.93,-12.03,0,*62
1484345170.85,60844,5.81,71216.0,-10.77,-11.89,-12.03,0,*6E
1484345172.06,60845,5.81,71216.5,-10.77,-12.03,-12.03,0,*6E
1484345173.35,60846,5.81,71212.3,-10.75,-11.97,-11.97,0,*6F
1484345174.56,60847,5.81,71214.3,-10.77,-12.03,-12.03,0,*6C
1484345175.8,60848,5.81,71210.5,-10.77,-12.03,-11.93,0,*69
1484345177.09,60849,5.81,71214.0,-10.75,-11.89,-11.89,0,*60
1484345178.39,60850,5.81,71212.5,-10.75,-11.89,-11.97,0,*67
1484345179.62,60851,5.81,71212.3,-10.77,-12.03,-11.93,0,*61
1484345180.88,60852,5.81,71214.8,-10.77,-11.89,-11.97,0,*67
1484345182.13,60853,5.81,71214.8,-10.77,-11.93,-12.03,0,*63
1484345183.42,60854,5.81,71214.8,-10.75,-11.97,-11.97,0,*6C
1484345184.68,60855,5.81,71208.3,-10.77,-11.97,-11.97,0,*6F
1484345185.97,60856,5.81,71212.0,-10.75,-11.97,-11.89,0,*61
1484345187.26,60857,5.81,71208.5,-10.75,-11.97,-11.97,0,*6F
1484345188.47,60858,5.81,71210.5,-10.77,-12.03,-12.03,0,*62
1484345189.77,60859,5.81,71212.5,-10.75,-11.89,-11.97,0,*6E
1484345191.06,60860,5.81,71212.8,-10.75,-11.97,-11.97,0,*6B
1484345192.33,60861,5.81,71214.0,-10.75,-11.97,-12.03,0,*64
1484345193.59,60862,5.81,71214.3,-10.75,-12.03,-12.11,0,*6A
1484345194.85,60863,5.81,71214.5,-10.77,-12.07,-12.07,0,*6A
1484345196.1,60864,5.81,71214.5,-10.77,-12.21,-12.15,0,*6A
1484345197.36,60865,5.81,71214.5,-10.77,-12.07,-12.07,0,*6C
1484345198.6,60866,5.81,71218.5,-10.77,-12.07,-12.03,0,*6B
1484345199.87,60867,5.81,71216.3,-10.77,-11.93,-11.93,0,*6E
1484345201.11,60868,5.81,71218.5,-10.77,-11.93,-12.03,0,*6B
1484345202.32,60869,5.81,71218.5,-10.77,-12.03,-12.03,0,*60
1484345203.53,60870,5.81,71212.8,-10.77,-12.03,-12.03,0,*68
1484345204.83,60871,5.81,71216.5,-10.75,-11.89,-11.89,0,*6B
1484345206.07,60872,5.81,71218.3,-10.77,-11.93,-12.03,0,*60
1484345207.34,60873,5.81,71218.8,-10.77,-11.93,-11.89,0,*60
1484345208.64,60874,5.81,71216.8,-10.75,-11.89,-11.89,0,*6E
1484345209.93,60875,5.81,71214.8,-10.75,-11.89,-11.89,0,*6F
1484345211.2,60876,5.81,71216.0,-10.77,-11.93,-11.93,0,*6E
1484345212.41,60877,5.81,71216.3,-10.77,-12.03,-12.03,0,*6F
1484345213.66,60878,5.81,71218.8,-10.77,-11.93,-12.03,0,*6A
1484345214.92,60879,5.81,71216.8,-10.75,-12.03,-11.97,0,*6D
1484345216.22,60880,5.81,71216.5,-10.75,-11.97,-11.89,0,*6A
1484345217.47,60881,5.81,71216.0,-10.77,-11.89,-11.81,0,*6E
1484345218.77,60882,5.81,71218.5,-10.75,-11.89,-11.89,0,*67
1484345220.04,60883,5.81,71216.3,-10.77,-11.93,-11.93,0,*64
1484345221.33,60884,5.81,71218.5,-10.75,-11.89,-11.97,0,*6E
1484345222.6,60885,5.81,71218.5,-10.77,-11.93,-11.93,0,*62
1484345223.89,60886,5.81,71216.0,-10.75,-11.97,-11.85,0,*60
1484345225.18,60887,5.81,71216.0,-10.75,-11.89,-11.85,0,*6E
1484345226.48,60888,5.81,71214.5,-10.75,-11.89,-11.89,0,*6D
1484345227.77,60889,5.81,71212.0,-10.75,-11.97,-11.89,0,*63
1484345229.04,60890,5.81,71212.0,-10.77,-11.93,-11.93,0,*66
1484345230.33,60891,5.81,71218.5,-10.75,-11.97,-11.97,0,*65
1484345231.57,60892,5.81,71214.3,-10.77,-12.03,-11.89,0,*65
1484345232.87,60893,5.81,71214.3,-10.75,-11.97,-11.89,0,*68
1484345234.13,60894,5.81,71212.8,-10.75,-11.97,-12.03,0,*6E
1484345235.43,60895,5.81,71212.5,-10.75,-11.97,-11.97,0,*61
1484345236.72,60896,5.81,71214.3,-10.75,-11.97,-11.89,0,*6D
1484345237.93,60897,5.75,71214.0,-10.77,-12.03,-12.03,0,*61
1484345239.2,60898,5.81,71214.3,-10.75,-12.03,-11.89,0,*6D
1484345240.44,60899,5.81,71216.8,-10.77,-12.03,-11.93,0,*65
1484345241.65,60900,5.81,71214.3,-10.77,-12.03,-12.03,0,*6E
1484345242.94,60901,5.81,71216.5,-10.75,-11.97,-11.97,0,*6D
1484345244.15,60902,5.81,71212.8,-10.77,-12.03,-12.03,0,*6C
1484345245.39,60903,5.81,71212.5,-10.77,-12.03,-11.93,0,*67
1484345246.68,60904,5.81,71214.0,-10.75,-11.97,-11.97,0,*68
1484345247.97,60905,5.81,71214.3,-10.75,-11.89,-11.89,0,*69
1484345249.18,60906,5.81,71214.3,-10.77,-12.03,-12.03,0,*68
1484345250.47,60907,5.81,71216.5,-10.75,-11.89,-11.97,0,*64
1484345251.74,60908,5.81,71218.3,-10.75,-12.03,-11.97,0,*6A
1484345253.03,60909,5.81,71214.8,-10.75,-11.89,-11.89,0,*65
1484345254.33,60910,5.81,71212.8,-10.75,-11.97,-11.89,0,*62
1484345255.62,60911,5.81,71214.8,-10.75,-11.89,-11.89,0,*6C
1484345256.83,60912,5.81,71214.0,-10.77,-12.03,-12.03,0,*6D
1484345258.12,60913,5.75,71214.5,-10.75,-11.89,-11.97,0,*61
1484345259.37,60914,5.81,71214.3,-10.77,-11.93,-12.03,0,*61
1484345260.61,60915,5.81,71214.0,-10.77,-11.93,-12.03,0,*60
1484345261.9,60916,5.75,71210.8,-10.75,-11.97,-11.97,0,*6B
1484345263.19,60917,5.81,71212.0,-10.75,-11.97,-11.97,0,*6A
1484345264.4,60918,5.81,71212.0,-10.77,-12.03,-12.03,0,*67
1484345265.62,60919,5.81,71216.0,-10.77,-12.03,-12.03,0,*66
1484345266.85,60920,5.81,71216.0,-10.77,-12.03,-11.93,0,*66
1484345268.15,60921,5.81,71212.5,-10.75,-11.97,-11.93,0,*6B
1484345269.42,60922,5.81,71210.3,-10.77,-11.93,-11.93,0,*6E
1484345270.71,60923,5.81,71214.0,-10.75,-11.89,-11.97,0,*62
1484345271.95,60924,5.81,71208.8,-10.77,-12.03,-11.93,0,*62
1484345273.24,60925,5.81,71210.8,-10.75,-11.97,-11.97,0,*6B
1484345274.53,60926,5.81,71210.3,-10.75,-11.89,-11.97,0,*67
1484345275.82,60927,5.75,71206.5,-10.75,-11.97,-11.97,0,*69
1484345277.03,60928,5.81,71214.5,-10.77,-12.03,-12.03,0,*64
1484345278.3,60929,5.81,71214.5,-10.77,-12.07,-11.93,0,*6B
1484345279.59,60930,5.81,71212.0,-10.75,-11.97,-11.97,0,*6F
1484345280.88,60931,5.81,71208.8,-10.75,-11.97,-11.97,0,*6E
1484345282.15,60932,5.81,71212.8,-10.75,-11.97,-12.03,0,*63
1484345283.41,60933,5.81,71214.3,-10.75,-11.97,-12.03,0,*62
1484345284.71,60934,5.81,71210.8,-10.75,-11.97,-11.89,0,*64
1484345286.0,60935,5.81,71214.5,-10.75,-11.97,-11.97,0,*6A
1484345287.26,60936,5.81,71212.3,-10.77,-11.97,-11.89,0,*64
1484345288.56,60937,5.81,71216.5,-10.75,-11.89,-11.89,0,*68
1484345289.77,60938,5.81,71214.0,-10.77,-12.03,-12.03,0,*65
1484345291.0,60939,5.75,71212.0,-10.77,-12.03,-11.93,0,*6E
1484345292.3,60940,5.81,71212.0,-10.75,-11.89,-11.89,0,*68
1484345293.59,60941,5.81,71218.0,-10.75,-11.89,-11.85,0,*65
1484345294.88,60942,5.75,71210.0,-10.75,-11.97,-11.85,0,*69
1484345296.18,60943,5.81,71212.5,-10.75,-11.89,-11.89,0,*6B
1484345297.47,60944,5.81,71214.0,-10.75,-11.97,-11.89,0,*63
1484345298.76,60945,5.81,71214.5,-10.75,-11.97,-11.89,0,*62
1484345300.0,60946,5.81,71212.5,-10.77,-12.03,-11.93,0,*66